Flag for Canada Weather past 2 weeks in Selkirk, Manitoba, Canada

Now
50 °F

Cool.


Feels Like: 49 °F
Forecast: N/A
Wind: 3 mph from Southeast

Location: Winnipeg The Forks


UV Index: N/A

Visibility: N/A


Pressure: 30.01 "Hg

Humidity: 50%

Dew point: 32 °F

Location of SelkirkLocation

Historic Weather in Selkirk

°F

Selkirk temperature yesterday

Maximum temperature yesterday: 53 °F (at 1:00 PM)
Minimum temperature yesterday: 35 °F (at 5:00 AM)
Average temperature yesterday: 42 °F

Past Weeks' High & Low Weather Summary

 TemperatureHumidityPressure
High53 °F (Apr 19, 1:00 PM)100% (Apr 6, 5:00 AM)30.45 "Hg (Apr 6, 5:00 AM)
Low10 °F (Apr 15, 1:00 AM)24% (Apr 18, 3:00 PM)29.31 "Hg (Apr 9, 4:00 PM)
Average32 °F62%30.00 "Hg
* Reported Apr 5 1:00 PM — Apr 20 1:00 PM, Selkirk, Weather by CustomWeather, © 2014

Note: Actual official high and low records may vary slightly from our data, if they occured in-between our weather recording intervals... More about our weather records

Advertising

Historic Weather Conditions — Data for Previous 24 hours

 ConditionsComfort  
Time TempWeatherWind HumidityBarometerVisibility
1:00 PM
Apr 20
47 °FCool.2 mph54%30.03 "HgN/A
12:00 PM45 °FCool.3 mph57%30.04 "HgN/A
11:00 AM43 °FQuite cool.2 mph58%30.05 "HgN/A
10:00 AM42 °FQuite cool.1 mph61%30.05 "HgN/A
9:00 AM39 °FChilly.1 mph69%30.05 "HgN/A
8:00 AM35 °FChilly.1 mph81%30.05 "HgN/A
7:00 AM34 °FChilly.3 mph79%30.03 "HgN/A
6:00 AM35 °FChilly.2 mph79%30.03 "HgN/A
5:00 AM34 °FChilly.2 mph79%30.02 "HgN/A
4:00 AM36 °FChilly.5 mph75%30.01 "HgN/A
3:00 AM36 °FChilly.3 mph75%30.00 "HgN/A
2:00 AM36 °FChilly.2 mph74%29.99 "HgN/A
1:00 AM36 °FChilly.3 mph74%29.99 "HgN/A
12:00 AM38 °FChilly.5 mph69%29.98 "HgN/A
11:00 PM
Apr 19
39 °FChilly.5 mph68%29.97 "HgN/A
10:00 PM41 °FQuite cool.5 mph67%29.96 "HgN/A
9:00 PM40 °FQuite cool.5 mph73%29.94 "HgN/A
8:00 PM43 °FQuite cool.3 mph69%29.92 "HgN/A
7:00 PM44 °FQuite cool.6 mph68%29.90 "HgN/A
6:00 PM46 °FCool.7 mph66%29.86 "HgN/A
5:00 PM47 °FCool.8 mph64%29.82 "HgN/A
4:00 PM48 °FCool.7 mph69%29.78 "HgN/A
3:00 PM50 °FCool.8 mph65%29.74 "HgN/A
Weather by CustomWeather, © 2014

See weather overview